Home   Weather   Jefferson City   Past weeks
Flag for USA

Past Weather in Jefferson City, Missouri, USA — Yesterday and Last 2 Weeks

Now
58 °F

Overcast.


Feels Like: 56 °F
Forecast: 57 / 33 °F
Wind: 10 mph from East

Location: Jefferson City Memorial Airport

Current Time: Mar 19, 2019 at 6:40:26 pm

Latest Report: Mar 19, 2019 at 5:53 pm


Visibility: 10 mi

Pressure: 30.18 "Hg

Humidity: 36%

Dew Point: 31 °F

Location of Jefferson CityLocation

Past Weather in Jefferson City — Graph

°F

Jefferson City Temperature Yesterday

Maximum temperature yesterday: 54 °F (at 3:53 pm)
Minimum temperature yesterday: 33 °F (at 5:53 am)
Average temperature yesterday: 43 °F

High & Low Weather Summary for the Past Weeks

 TemperatureHumidityPressure
High66 °F (Mar 13, 1:53 pm)93% (Mar 9, 7:14 am)30.49 "Hg (Mar 9, 7:14 am)
Low9 °F (Mar 6, 6:53 am)22% (Mar 18, 3:53 pm)29.29 "Hg (Mar 9, 2:53 pm)
Average40 °F63%30.12 "Hg
* Reported Mar 4 3:53 pm — Mar 19 4:53 pm, Jefferson City. Weather by CustomWeather, © 2019

Note: Actual official high and low records may vary slightly from our data, if they occured in-between our weather recording intervals... More about our weather records

Advertising

Jefferson City Weather History for the Previous 24 Hours

Scroll right to see more
 ConditionsComfort  
Time TempWeatherWind HumidityBarometerVisibility
4:53 pm
Tue, Mar 19
58 °FScattered clouds.12 mph36%30.19 "Hg10 mi
3:53 pm57 °FSunny.12 mph36%30.22 "Hg10 mi
2:53 pm55 °FOvercast.9 mph39%30.25 "Hg10 mi
1:53 pm52 °FPartly sunny.7 mph45%30.29 "Hg10 mi
12:53 pm47 °FOvercast.6 mph54%30.33 "Hg10 mi
11:53 am44 °FOvercast.7 mph58%30.35 "Hg10 mi
10:53 am42 °FOvercast.7 mph62%30.36 "Hg10 mi
9:53 am39 °FOvercast.6 mph73%30.37 "Hg10 mi
8:53 am37 °FMostly cloudy.6 mph76%30.36 "Hg10 mi
7:53 am34 °FPartly sunny.6 mph82%30.34 "Hg10 mi
6:53 am33 °FOvercast.6 mph78%30.34 "Hg10 mi
5:53 am32 °FPassing clouds.3 mph82%30.33 "Hg10 mi
4:53 am32 °FPassing clouds.No wind75%30.32 "Hg10 mi
3:53 am31 °FPassing clouds.No wind79%30.32 "Hg10 mi
2:53 am31 °FClear.No wind76%30.34 "Hg10 mi
1:53 am30 °FClear.No wind75%30.34 "Hg10 mi
12:53 am32 °FClear.No wind73%30.35 "Hg10 mi
11:53 pm
Mon, Mar 18
34 °FClear.No wind67%30.36 "Hg10 mi
10:53 pm37 °FClear.No wind60%30.36 "Hg10 mi
9:53 pm39 °FClear.No wind55%30.36 "Hg10 mi
8:53 pm49 °FClear.8 mph28%30.34 "Hg10 mi
7:53 pm50 °FClear.6 mph28%30.34 "Hg10 mi
6:53 pm53 °FSunny.No wind24%30.34 "Hg10 mi
Weather by CustomWeather, © 2019

See weather overview